Time[GMT],air_temperature[C](-3m),wind_speed[m/s](-4m),wind_gust[m/s](-4m),wind_direction[degrees](-4m),visibility[m](-3m),barometric_pressure[millibars](-3m)
2004-10-06 14:00,8.2,5.7,7.7,214,2963,1028.00
2004-10-06 15:00,8.8,6.4,8.1,219,2951,1027.94
2004-10-06 17:00,9.6,7.0,8.6,219,2903,1026.44
2004-10-06 18:00,10.5,8.2,9.6,218,2962,1025.24
2004-10-06 19:00,10.7,9.3,11.1,219,2962,1024.58
2004-10-06 21:00,11.2,8.0,9.8,226,2614,1023.92
2004-10-06 23:00,11.6,6.7,8.4,223,2962,1024.58
2004-10-07 00:00,11.8,6.1,7.2,225,2962,1024.70
2004-10-07 01:00,12.1,6.4,8.1,228,2962,1024.94
2004-10-07 02:00,,,,,,
2004-10-07 04:00,11.9,3.0,3.3,228,2962,1025.06
2004-10-07 05:00,11.5,2.7,3.2,256,2962,1024.70
2004-10-07 06:00,10.5,2.5,2.9,275,2962,1024.76
2004-10-07 07:00,10.3,4.0,4.5,277,2962,1024.58
2004-10-07 08:00,9.8,2.6,3.4,256,2962,1024.82
2004-10-07 09:00,9.7,2.9,3.4,264,2962,1025.24
2004-10-07 10:00,10.4,2.3,2.6,238,2962,1025.54
2004-10-07 11:00,9.0,2.8,3.7,269,2962,1026.38
2004-10-07 12:00,11.2,1.6,2.1,  6,2962,1027.04
2004-10-07 13:00,13.4,0.1,0.7,297,2962,1027.76
2004-10-07 14:00,12.4,0.2,0.5,278,2962,1028.24
2004-10-07 16:00,12.6,2.8,3.5,206,2957,1027.76
2004-10-07 19:00,13.0,4.3,5.0,216,2938,1026.74
2004-10-07 20:00,13.2,5.2,6.3,212,2959,1026.80
2004-10-07 21:00,13.1,3.9,4.4,224,2494,1026.98
2004-10-07 22:00,13.1,1.9,2.6,238,2962,1027.04
2004-10-07 23:00,12.6,3.7,4.3,214,2961,1027.28
2004-10-08 00:00,12.4,3.2,3.8,219,2961,1027.64
2004-10-08 01:00,12.1,2.3,2.8,222,2961,1027.88
2004-10-08 02:00,12.1,3.3,3.8,230,2961,1028.00
2004-10-08 03:00,12.1,1.8,2.5,199,2962,1027.94
2004-10-08 04:00,11.9,2.2,2.5,209,2962,1028.00
2004-10-08 05:00,12.0,2.7,3.3,216,2962,1028.12
2004-10-08 06:00,11.9,2.4,2.7,199,2962,1027.88
2004-10-08 07:00,11.9,1.7,2.2,200,2962,1027.70
2004-10-08 08:00,11.7,2.0,2.2,198,2962,1027.58
2004-10-08 09:00,11.9,2.8,3.2,211,2962,1027.40
2004-10-08 10:00,12.0,2.6,3.0,216,2962,1027.34
2004-10-08 12:00,11.6,0.6,1.1,255,2962,1027.76
2004-10-08 14:00,12.3,5.3,6.1,238,1271,1028.06
2004-10-08 15:00,12.2,4.3,5.1,217, 574,1027.94
2004-10-08 17:00,12.3,6.0,7.2,211, 241,1026.68
2004-10-08 18:00,12.4,5.4,6.5,216, 267,1026.02
2004-10-08 19:00,12.7,5.3,6.8,219, 327,1025.66
2004-10-08 20:00,12.4,3.3,4.3,191, 141,1025.00
2004-10-08 22:00,12.0,2.3,2.6,209,2961,1024.58
2004-10-08 23:00,12.1,2.5,2.9,202,2961,1024.52
2004-10-09 00:00,,,,,,
2004-10-09 01:00,12.6,2.3,3.2,213,2962,1024.52
2004-10-09 02:00,12.7,3.3,3.8,228,2962,1024.46
2004-10-09 03:00,12.9,6.1,7.2,201,2961,1023.74
2004-10-09 04:00,13.0,5.7,6.6,211,2961,1023.38
2004-10-09 05:00,12.9,5.8,6.7,215,2962,1023.20
2004-10-09 06:00,12.9,6.4,7.4,215,2962,1022.54
2004-10-09 07:00,12.8,6.2,7.3,222,2961,1021.94
2004-10-09 08:00,12.8,5.5,6.4,212,2961,1021.70
2004-10-09 09:00,12.6,4.8,5.6,206,2961,1021.22
2004-10-09 10:00,12.7,5.6,6.7,222,2961,1021.04
2004-10-09 11:00,12.7,7.0,8.1,216,2961,1020.80
2004-10-09 12:00,,,,,,
2004-10-09 13:00,12.7,6.2,7.2,215,2962,1021.10
2004-10-09 15:00,13.1,6.4,7.3,209,2958,1020.62
2004-10-09 17:00,12.9,6.5,7.5,206,2962,1019.48
2004-10-09 18:00,13.2,5.9,6.9,213,2944,1018.70
2004-10-09 19:00,13.3,5.6,6.5,217,2947,1018.52
2004-10-09 20:00,13.4,6.6,7.5,209,2916,1017.74
2004-10-09 22:00,13.3,8.1,9.3,193,2960,1016.66
2004-10-09 23:00,13.6,7.3,8.4,195,2961,1016.54
2004-10-10 00:00,13.4,6.8,7.9,194,2961,1016.24
2004-10-10 01:00,13.1,4.9,5.7,214,2961,1016.42
2004-10-10 02:00,13.1,5.1,5.8,208,2961,1016.48
2004-10-10 03:00,13.1,6.0,7.1,201,2961,1015.94
2004-10-10 05:00,13.5,6.7,8.3,208,2961,1014.74
2004-10-10 07:00,13.0,5.8,7.0,211,2961,1013.60
2004-10-10 08:00,12.8,5.9,6.6,221,2961,1013.24
2004-10-10 09:00,13.0,4.3,4.9,222,2960,1013.48
2004-10-10 10:00,12.9,4.1,4.7,236,2846,1013.24
2004-10-10 11:00,12.6,3.0,3.6,228,2519,1013.60
2004-10-10 12:00,12.3,2.0,2.6,216,2294,1013.72
2004-10-10 13:00,12.3,2.0,2.6,243,2272,1013.66
2004-10-10 16:00,13.0,1.2,1.9, 22,2709,1013.48
2004-10-10 17:00,13.5,1.7,1.9,  3,2961,1012.76
2004-10-10 18:00,13.6,1.5,1.8,334,2962,1012.16
2004-10-10 19:00,13.4,2.4,2.9,357,2962,1011.38
2004-10-10 20:00,13.7,1.6,1.9,326,2961,1011.08
2004-10-10 22:00,12.0,2.9,3.9,163,  97,1011.02
2004-10-10 23:00,11.6,1.8,2.3,262,2491,1012.16
2004-10-11 00:00,13.6,7.1,8.7,357,2961,1012.22
2004-10-11 02:00,12.8,8.2,10.4,  3,2961,1012.28
2004-10-11 06:00,11.9,7.6,9.2,  4,2961,1011.56
2004-10-11 07:00,0.5,20.5,,223,  13,
2004-10-11 10:00,11.7,11.0,13.8, 14,2961,1011.86
2004-10-11 13:00,11.3,11.7,14.1, 16,2960,1012.34
2004-10-11 14:00,11.5,11.6,13.9, 13,2962,1012.04
2004-10-11 15:00,11.7,11.2,13.6, 15,2962,1012.22
2004-10-11 17:00,,,, 34,  61,
2004-10-11 22:00,13.6,11.4,14.0,  4,2961,1008.44
2004-10-12 00:00,12.8,11.1,13.9,352,2961,1006.94
2004-10-12 01:00,,,,,,
2004-10-12 02:00,,,3.6, 63,  27,
2004-10-12 05:00,11.2,13.4,16.1,338,2370,1000.28
2004-10-12 07:00,10.2,15.9,19.9,337,2784,996.73
2004-10-12 11:00,,,,345, 615,
2004-10-12 13:00,9.3,13.7,16.3,349,2647,994.57
2004-10-12 15:00,10.1,13.2,15.4,358,2957,995.23
2004-10-12 21:00,,,,293,,
2004-10-12 22:00,11.0,12.2,15.1,355,2961,995.23
2004-10-12 23:00,10.8,11.9,15.6,353,2962,997.27
2004-10-13 04:00,11.6,7.3,9.1,333,2962,998.12
2004-10-13 07:00,10.7,1.7,3.7,253,2961,999.38
2004-10-13 08:00,11.2,4.1,5.2,309,2962,999.98
2004-10-13 09:00,11.6,7.3,8.8,325,2961,999.92
2004-10-13 11:00,10.6,4.0,6.0,284,2962,1000.76
2004-10-13 12:00,,,,,,
2004-10-13 13:00,12.1,8.2,9.6,346,2962,1000.88
2004-10-13 14:00,12.5,6.7,8.0,345,2962,1001.18
2004-10-13 16:00,-1.3,,2.0,346,,
2004-10-13 17:00,13.5,1.8,3.1,150,2962,1001.12
2004-10-13 18:00,12.6,3.1,4.5,175,2962,1001.30
2004-10-13 19:00,12.8,3.5,4.7,187,2962,1001.36
2004-10-13 20:00,14.6,3.6,5.4,230,2962,1001.24
2004-10-13 21:00,14.2,4.7,5.9,238,2962,1001.78
2004-10-13 22:00,13.3,5.4,6.0,229,2960,1002.44
2004-10-13 23:00,12.9,5.4,6.4,235,2960,1002.98
2004-10-14 00:00,12.8,4.5,5.3,234,2960,1003.40
2004-10-14 01:00,0.8,,,262,2152,
2004-10-14 02:00,12.5,1.0,2.7,320,2961,1004.00
2004-10-14 03:00,12.0,1.9,2.6,264,2961,1004.06
2004-10-14 04:00,11.8,1.7,2.4, 18,2961,1004.18
2004-10-14 05:00,11.4,0.9,1.5,297,2961,1004.54
2004-10-14 06:00,11.5,1.8,2.1, 34,2961,1004.84
2004-10-14 07:00,11.0,1.3,1.9, 75,2961,1004.84
2004-10-14 08:00,10.8,1.7,2.0, 64,2961,1004.66
2004-10-14 09:00,10.8,2.4,2.9, 57,2961,1004.66
2004-10-14 10:00,,,,  3,  41,
2004-10-14 11:00,10.6,1.0,1.9, 88,2961,1005.50
2004-10-14 12:00,10.7,2.6,2.9, 36,2962,1005.86
2004-10-14 13:00,10.9,2.4,2.7, 52,2962,1006.16
2004-10-14 14:00,11.1,1.4,1.8, 51,2962,1006.34
2004-10-14 15:00,11.9,1.7,2.0, 47,2962,1006.46
2004-10-14 16:00,12.6,1.8,2.3, 86,2962,1006.40
2004-10-14 17:00,12.1,2.7,3.5,104,2962,1006.10
2004-10-14 18:00,12.1,0.8,1.5, 24,2962,1005.80
2004-10-14 19:00,12.0,4.6,5.4,118,2962,1005.68
2004-10-14 20:00,-4.4,,,  7,,
2004-10-14 22:00,12.2,4.2,4.9, 93,2960,1005.92
2004-10-14 23:00,11.8,3.8,4.7, 79,2960,1005.92
2004-10-15 00:00,11.9,5.0,6.0, 76,2960,1005.62
2004-10-15 01:00,11.9,4.1,5.0, 66,2960,1005.68
2004-10-15 02:00,12.1,3.9,4.5, 63,2960,1006.04
2004-10-15 03:00,,,,,,
2004-10-15 04:00,12.1,6.1,7.2, 45,2662,1005.08
2004-10-15 05:00,12.3,5.5,6.9, 35,2960,1004.54
2004-10-15 07:00,12.2,6.3,7.6, 58,2960,1005.08
2004-10-15 09:00,12.1,7.6,9.9, 61,2960,1004.78
2004-10-15 10:00,12.2,8.3,9.8, 56,2647,1005.20
2004-10-15 11:00,11.8,5.7,7.1, 56,2960,1003.52
2004-10-15 12:00,11.7,6.3,8.3, 45,2960,1003.70
2004-10-15 13:00,11.6,4.4,6.3, 36,2960,1003.34
2004-10-15 15:00,,,,162,1383,
2004-10-15 16:00,11.7,3.6,4.8, 40,1353,1004.24
2004-10-15 17:00,12.0,7.3,8.3, 68,2310,1003.46
2004-10-15 20:00,11.7,6.2,7.5, 89,1195,1002.32
2004-10-15 21:00,11.4,4.6,5.5, 81, 738,1001.18
2004-10-15 22:00,11.5,2.4,3.4, 34, 352,1001.30
2004-10-15 23:00,11.8,1.9,3.0, 58, 486,1001.90
2004-10-16 00:00,17.9,,,336,  36,
2004-10-16 01:00,11.6,2.8,3.6,145, 155,1001.60
2004-10-16 02:00,11.4,5.4,6.2,169, 429,1001.18
2004-10-16 03:00,11.3,3.5,4.3,109, 201,1000.70
2004-10-16 04:00,11.6,5.6,6.5,111,1012,1001.24
2004-10-16 08:00,13.0,10.1,12.6,112,1985,993.01
2004-10-16 10:00,,,, 10,,
2004-10-16 11:00,13.4,10.6,12.7,188,2146,988.99
2004-10-16 13:00,12.6,6.1,8.1,225,2859,986.47
2004-10-16 14:00,12.6,7.9,9.9,218,2916,987.85
2004-10-16 15:00,12.6,8.3,9.6,213,2960,990.55
2004-10-16 16:00,12.8,9.7,11.2,224,2960,991.87
2004-10-16 17:00,12.6,10.2,12.1,229,2608,993.73
2004-10-16 18:00,12.7,9.0,10.5,227,2817,994.75
2004-10-16 19:00,-5.9,,1.5, 65,  61,
2004-10-16 22:00,12.6,9.3,11.2,201,2960,998.96
2004-10-16 23:00,12.6,9.0,10.3,200,2960,999.50
2004-10-17 00:00,12.5,8.6,10.1,205,2922,999.50
2004-10-17 01:00,12.4,8.5,10.4,207,2906,999.44
2004-10-17 03:00,12.2,7.4,8.8,213,2883,1000.76
2004-10-17 04:00,11.9,5.9,7.0,207,2953,999.68
2004-10-17 06:00,11.5,5.5,6.8,179,2930,1000.76
2004-10-17 07:00,11.8,7.1,8.1,182,2947,1000.88
2004-10-17 09:00,11.7,6.8,7.8,201,2960,1000.88
2004-10-17 10:00,11.5,7.5,9.4,220,2960,1001.30
2004-10-17 11:00,11.4,7.7,9.6,228,2960,1001.84
2004-10-17 12:00,11.2,6.3,8.0,228,2962,1002.32
2004-10-17 13:00,11.1,7.5,9.2,235,2962,1002.86
2004-10-17 14:00,-6.9,,23.0, 52,  33,
2004-10-17 15:00,11.2,9.0,11.3,237,2962,1003.22
2004-10-17 16:00,10.9,8.2,9.7,227,2962,1003.16
2004-10-17 18:00,10.7,10.0,11.7,217,2795,1002.98
2004-10-17 19:00,10.7,10.3,11.9,216,2679,1003.34
2004-10-17 20:00,10.7,10.2,12.5,224,2753,1003.70
2004-10-17 23:00,,,, 19,,
2004-10-18 00:00,11.8,10.0,12.1,242,2960,1005.32
2004-10-18 02:00,11.2,7.4,9.1,242,2960,1006.28
2004-10-18 03:00,10.6,6.7,8.6,254,2960,1004.84
2004-10-18 04:00,10.2,4.9,6.0,250,2960,1005.44
2004-10-18 06:00,9.1,6.3,7.6,265,2960,1006.70
2004-10-18 07:00,8.6,6.4,7.6,268,2960,1007.60
2004-10-18 08:00,8.3,7.2,9.0,281,2960,1009.10
2004-10-18 11:00,7.5,6.2,7.2,262,2961,1011.68
2004-10-18 12:00,7.2,5.3,7.1,276,2488,1012.70
2004-10-18 13:00,8.0,6.3,7.5,285,2962,1013.42
2004-10-18 14:00,9.8,5.5,7.0,304,2962,1013.90
2004-10-18 15:00,10.3,5.2,6.7,300,2962,1013.78
2004-10-18 16:00,10.7,5.5,7.0,293,2962,1013.78
2004-10-18 17:00,11.2,3.8,4.6,279,2962,1013.72
2004-10-18 18:00,,,,352, 445,
2004-10-18 20:00,12.0,3.3,6.8,284,2962,1015.52
2004-10-18 21:00,12.0,4.3,5.0,328,2961,1016.12
2004-10-18 22:00,11.5,3.3,4.1,320,2960,1016.90
2004-10-18 23:00,10.9,4.2,5.1,303,2960,1017.98
2004-10-19 00:00,10.3,4.7,5.8,320,2960,1018.94
2004-10-19 01:00,10.1,5.8,7.1,349,2960,1019.54
2004-10-19 03:00,9.1,4.7,5.3,344,2960,1021.04
2004-10-19 04:00,6.7,,, 10,,
2004-10-19 05:00,8.5,5.0,6.1,358,2960,1020.74
2004-10-19 06:00,8.1,3.6,4.5,339,2960,1021.10
2004-10-19 07:00,8.0,4.0,4.8,345,2960,1021.28
2004-10-19 08:00,7.8,4.1,5.0,348,2960,1021.40
2004-10-19 09:00,7.9,3.7,4.8,  4,2960,1021.76
2004-10-19 12:00,7.0,4.9,6.2, 22,2961,1023.14
2004-10-19 13:00,,,,106, 445,
2004-10-19 14:00,7.4,4.8,5.9, 46,2962,1023.62
2004-10-19 15:00,7.6,4.9,5.8, 30,2962,1023.56
2004-10-19 16:00,8.1,3.1,4.0, 35,2962,1023.50
2004-10-19 17:00,9.4,1.5,2.7, 29,2962,1022.72
2004-10-19 18:00,9.2,1.7,2.3,150,2962,1022.84
2004-10-19 19:00,9.6,0.7,1.2,182,2962,1022.90
2004-10-19 20:00,9.3,0.1,0.5,167,2962,1023.14
2004-10-19 21:00,8.9,1.1,1.7,107,2962,1023.14
2004-10-19 22:00,8.9,1.2,1.6,107,2960,1023.08
2004-10-19 23:00,,,,236, 445,
2004-10-20 00:00,9.4,2.7,3.3, 25,2960,1023.02
2004-10-20 01:00,10.1,3.6,4.4, 36,2960,1023.38
2004-10-20 02:00,9.7,5.0,5.6, 36,2960,1023.50
2004-10-20 03:00,9.6,5.2,6.3, 38,2960,1023.74
2004-10-20 07:00,7.1,9.6,11.4, 38,2960,1023.02
2004-10-20 11:00,,,,,,
2004-10-20 16:00,7.3,5.0,6.5, 25,2948,1024.10
2004-10-20 17:00,,,,,,
2004-10-20 18:00,9.0,5.0,6.2, 15,2908,1022.96
2004-10-20 19:00,9.2,4.8,5.9, 19,2962,1022.36
2004-10-20 21:00,10.0,5.6,6.7, 18,2962,1021.64
2004-10-20 22:00,10.1,5.6,6.6, 16,2960,1021.88
2004-10-20 23:00,9.9,6.5,7.5, 14,2960,1022.00
2004-10-21 01:00,8.8,3.6,4.3, 59,2960,1022.60
2004-10-21 02:00,8.7,6.1,6.9, 39,2960,1022.30
2004-10-21 08:00,,,,,,
2004-10-21 09:00,7.2,5.8,6.6, 55,2960,1022.36
2004-10-21 10:00,6.8,6.1,7.4, 47,2960,1022.96
2004-10-21 12:00,,,,242,,
2004-10-21 13:00,5.9,7.4,8.7, 31,2962,1024.34
2004-10-21 14:00,6.4,7.0,8.4, 28,2962,1024.52
2004-10-21 16:00,7.3,5.7,6.6, 18,2962,1024.64
2004-10-21 17:00,7.8,5.7,6.9, 23,2962,1024.28
2004-10-21 19:00,8.8,5.2,6.2, 15,2962,1023.74
2004-10-21 20:00,9.2,5.3,6.5, 14,2962,1023.74
2004-10-21 21:00,9.4,6.9,7.9, 13,2960,1023.86
2004-10-21 23:00,9.3,5.8,6.8, 56,2960,1024.70
2004-10-22 01:00,8.9,6.1,6.9, 34,2960,1025.12
2004-10-22 02:00,8.9,7.8,9.4, 40,2960,1025.06
2004-10-22 07:00,8.9,8.1,9.3, 36,2960,1025.00
2004-10-22 14:00,8.3,8.3,9.2, 42,2962,1027.16
2004-10-22 17:00,,,,  4, 445,
2004-10-22 18:00,9.3,8.2,9.9, 33,2962,1025.96
2004-10-22 22:00,9.5,6.9,8.0, 33,2960,1026.20
2004-10-23 04:00,8.6,8.2,10.1, 42,2960,1025.48
2004-10-23 05:00,,,,,,
2004-10-23 08:00,8.0,7.4,8.9, 52,2960,1024.70
2004-10-23 09:00,8.0,8.2,9.9, 47,2960,1024.52
2004-10-23 12:00,8.4,7.9,9.2, 34,2960,1025.72
2004-10-23 16:00,8.5,9.3,10.5, 19,2962,1024.04
2004-10-23 17:00,8.8,8.5,10.2, 27,2961,1023.62
2004-10-23 20:00,9.4,7.6,9.3, 41,2960,1022.54
2004-10-23 21:00,,,, 62,   3,
2004-10-23 22:00,9.3,9.1,10.7, 33,2960,1021.70
2004-10-23 23:00,9.3,8.8,10.3, 35,2960,1021.64
2004-10-24 06:00,-8.2,,,,,
2004-10-24 09:00,8.5,9.1,10.7, 27,2960,1017.26
2004-10-24 12:00,8.3,8.2,9.7, 38,2960,1018.04
2004-10-24 13:00,8.5,8.7,10.4, 49,2960,1018.22
2004-10-24 14:00,8.3,8.2,9.9, 41,2960,1018.10
2004-10-24 15:00,8.4,8.4,10.0, 44,2961,1017.74
2004-10-24 16:00,,,,,,
2004-10-24 18:00,9.1,8.9,11.1, 44,2960,1016.54
2004-10-24 20:00,8.9,7.6,8.9, 49,2960,1016.66
2004-10-24 21:00,8.9,6.9,8.1, 39,2960,1016.78
2004-10-24 22:00,9.0,6.6,8.2, 38,2960,1017.08
2004-10-25 01:00,9.2,8.0,9.5, 46,2960,1016.78
2004-10-25 03:00,9.1,7.8,9.5, 45,2960,1016.42
2004-10-25 06:00,8.9,6.2,7.4, 37,2960,1016.90
2004-10-25 08:00,8.8,6.4,7.7, 33,2960,1016.78
2004-10-25 09:00,8.9,6.1,7.2, 26,2960,1016.66
2004-10-25 10:00,8.8,6.1,7.1, 32,2960,1016.72
2004-10-25 11:00,,,,291, 430,
2004-10-25 12:00,8.8,5.4,6.4, 39,2960,1017.44
2004-10-25 13:00,8.8,6.3,7.6, 35,2960,1017.68
2004-10-25 17:00,9.3,4.6,5.5, 14,2960,1017.20
2004-10-25 18:00,9.6,4.6,5.6, 33,2960,1016.90
2004-10-25 19:00,9.7,4.6,5.6, 55,2960,1016.90
2004-10-25 20:00,,,,,,
2004-10-25 21:00,9.3,3.4,3.8, 71,2960,1017.50
2004-10-25 22:00,9.3,3.5,4.0, 53,2960,1017.56
2004-10-25 23:00,9.2,4.1,4.9, 60,2960,1017.56
2004-10-26 00:00,9.1,4.1,5.0, 30,2960,1017.62
2004-10-26 01:00,9.3,5.6,6.4,357,2960,1017.50
2004-10-26 03:00,9.4,6.9,8.3,360,2872,1017.20
2004-10-26 04:00,9.4,6.6,7.4, 13,2960,1016.84
2004-10-26 05:00,,,,176, 445,
2004-10-26 07:00,9.5,6.4,7.3,  4,2960,1017.14
2004-10-26 08:00,9.6,6.8,7.7,  6,2960,1017.08
2004-10-26 09:00,9.4,7.1,8.2,  8,2960,1017.14
2004-10-26 10:00,9.3,6.9,7.8,  4,2960,1017.38
2004-10-26 11:00,9.3,7.2,8.5, 20,2960,1017.56
2004-10-26 14:00,9.3,7.4,8.7,  2,2960,1017.74
2004-10-26 17:00,9.8,6.6,7.6, 33,2962,1017.32
2004-10-26 19:00,10.7,3.7,5.1, 45,2961,1016.96
2004-10-26 20:00,11.0,2.8,3.5, 49,2961,1016.78
2004-10-26 21:00,11.1,0.9,1.9, 12,2961,1016.96
2004-10-26 22:00,9.9,3.4,3.8,146,2960,1017.44
2004-10-26 23:00,9.8,1.2,2.0,203,2960,1017.68
2004-10-27 00:00,,,,222,  32,
2004-10-27 01:00,9.9,2.3,3.7,326,2960,1018.10
2004-10-27 02:00,10.3,6.3,7.9, 21,2960,1017.74
2004-10-27 05:00,9.0,6.0,7.1, 11,2960,1017.68
2004-10-27 08:00,9.0,8.0,9.2, 12,2960,1017.62
2004-10-27 09:00,9.1,8.3,9.9, 17,2960,1018.04
2004-10-27 10:00,9.0,8.1,9.7, 13,2960,1018.10
2004-10-27 11:00,8.9,8.1,9.6, 14,2960,1018.76
2004-10-27 12:00,8.9,7.8,9.6, 26,2950,1018.70
2004-10-27 15:00,9.4,9.0,10.4, 16,2961,1018.52
2004-10-27 17:00,10.7,5.3,6.1, 14,2961,1018.16
2004-10-27 18:00,11.3,4.8,5.6, 26,2961,1017.92
2004-10-27 19:00,12.6,6.3,7.8,357,2961,1017.86
2004-10-27 21:00,12.1,6.6,8.2,  1,2960,1018.70
2004-10-27 23:00,11.5,7.2,8.7,  3,2960,1019.84
2004-10-28 08:00,7.1,10.8,12.4, 14,2960,1020.38
2004-10-28 11:00,5.9,10.1,13.0, 15,2960,1022.96
2004-10-28 14:00,,,,,,
2004-10-28 16:00,7.4,7.3,8.6, 19,2962,1025.06
2004-10-28 19:00,9.0,5.0,6.0, 29,2962,1022.96
2004-10-28 20:00,9.4,3.8,4.9, 27,2962,1022.90
2004-10-28 21:00,10.1,5.2,6.1,356,2962,1022.72
2004-10-28 22:00,9.9,3.9,4.7,347,2960,1023.02
2004-10-28 23:00,8.9,3.2,3.7,300,2960,1023.08
2004-10-29 00:00,8.5,1.5,2.3,311,2960,1023.02
2004-10-29 01:00,8.3,2.3,2.7,353,2960,1022.90
2004-10-29 02:00,8.4,2.3,3.1,351,2960,1022.66
2004-10-29 03:00,7.9,1.7,2.2,320,2960,1022.18
2004-10-29 04:00,7.5,2.7,3.2,348,2960,1021.88
2004-10-29 05:00,7.3,3.2,3.6,339,2960,1021.64
2004-10-29 06:00,6.2,3.2,3.8,283,2960,1021.28
2004-10-29 07:00,7.3,0.9,2.0,358,2960,1020.50
2004-10-29 08:00,7.5,0.7,1.1, 25,2960,1020.26
2004-10-29 09:00,7.3,2.5,3.3, 43,2960,1020.20
2004-10-29 10:00,6.9,3.2,4.1, 56,2960,1019.60
2004-10-29 11:00,6.7,2.5,3.1, 68,2960,1019.24
2004-10-29 12:00,6.8,3.3,4.1, 39,2287,1018.76
2004-10-29 13:00,6.8,4.5,5.4, 29,2962,1018.58
2004-10-29 14:00,6.7,5.5,6.7, 23,2962,1018.10
2004-10-29 15:00,6.8,7.1,8.2, 25,2961,1017.80
2004-10-29 17:00,7.3,5.1,6.5, 23,2962,1016.24
2004-10-29 18:00,7.7,4.2,5.0, 42,2962,1015.76
2004-10-29 19:00,8.3,2.5,3.6, 52,2962,1015.82
2004-10-29 20:00,8.7,2.6,3.5, 56,2961,1015.70
2004-10-29 21:00,8.9,2.1,2.8, 61,2961,1015.76
2004-10-29 22:00,8.8,1.1,1.6, 34,2960,1016.18
2004-10-29 23:00,8.4,2.9,3.6,219,2960,1016.48
2004-10-30 00:00,8.0,2.3,3.0,242,2960,1016.48
2004-10-30 01:00,8.0,1.5,2.0,259,2960,1016.42
2004-10-30 02:00,7.2,1.8,2.4,291,2960,1016.12
2004-10-30 03:00,7.0,2.4,2.8,270,2960,1015.94
2004-10-30 04:00,7.2,1.7,2.1,273,2960,1015.88
2004-10-30 05:00,7.2,1.8,2.3,294,2960,1015.70
2004-10-30 07:00,6.9,1.3,1.7,356,2960,1015.70
2004-10-30 08:00,7.0,0.9,1.2,354,2960,1015.64
2004-10-30 09:00,7.1,1.6,2.1, 14,2960,1015.64
2004-10-30 10:00,7.2,1.6,2.0, 69,2960,1015.82
2004-10-30 11:00,,,,,,
2004-10-30 13:00,8.6,4.6,5.4,166,2961,1015.88
2004-10-30 14:00,8.8,5.0,6.3,171,2251,1015.52
2004-10-30 15:00,9.1,5.4,6.5,176,2898,1015.34
2004-10-30 17:00,,,,,,
2004-10-30 20:00,9.7,4.9,5.9,170,2905,1012.40
2004-10-30 22:00,,,,,,
2004-10-31 01:00,10.6,9.4,11.4,182,1793,1008.98
2004-10-31 02:00,10.6,10.0,12.0,181,1288,1008.20
2004-10-31 03:00,10.8,9.5,11.4,182,1066,1007.12
2004-10-31 04:00,11.0,8.4,10.3,183,2473,1005.08
2004-10-31 06:00,11.6,8.7,10.1,203, 903,1003.28
2004-10-31 07:00,11.7,9.7,11.6,208, 383,1002.50
2004-10-31 08:00,11.3,6.2,8.3,192,1054,1001.24
2004-10-31 09:00,11.5,6.0,8.8,231, 594,1001.24
2004-10-31 11:00,11.3,6.1,6.7,223, 783,1001.12
2004-10-31 12:00,11.6,6.9,9.2,229,1889,1000.76
2004-10-31 13:00,11.5,8.5,10.8,228, 576,1000.46
2004-10-31 14:00,11.4,8.7,10.2,231, 280,1000.22
2004-10-31 16:00,11.7,6.1,7.1,243,2013,999.86
2004-10-31 17:00,12.6,2.8,5.1,297,2960,999.80
2004-10-31 18:00,12.6,1.9,2.6,198,2960,999.44
2004-10-31 21:00,12.4,1.4,2.5,145,2960,1000.40
2004-10-31 22:00,12.1,2.7,3.1,221,2960,1001.36
2004-10-31 23:00,12.9,2.7,3.0,247,2960,1002.08
2004-11-01 00:00,12.1,2.8,3.1,244,2960,1002.50
2004-11-01 01:00,11.8,3.6,3.9,244,2960,1002.80
2004-11-01 02:00,11.4,3.5,4.2,224,2960,1003.10
2004-11-01 03:00,11.4,4.6,5.4,245,2960,1003.04
2004-11-01 04:00,11.1,3.1,4.0,240,2960,1002.98
2004-11-01 05:00,11.3,5.2,6.3,249,2960,1003.10
2004-11-01 06:00,11.3,4.2,5.1,259,2960,1003.46
2004-11-01 07:00,11.0,3.1,4.3,254,2960,1004.30
2004-11-01 08:00,11.4,11.3,13.3,312,2960,1004.24
2004-11-01 11:00,9.8,7.9,9.7,329,2960,1006.64
2004-11-01 12:00,-1.3,,,119,,
2004-11-01 14:00,9.8,6.0,7.4,323,2933,1009.22
2004-11-01 15:00,10.4,6.6,7.9,320,2961,1009.52
2004-11-01 16:00,10.9,7.5,9.5,336,2961,1009.70
2004-11-01 17:00,11.3,9.0,11.1,344,2961,1009.88
2004-11-01 23:00,9.5,9.4,11.4,339,2960,1015.28
2004-11-02 03:00,8.5,8.9,10.7,  1,2960,1016.84
2004-11-02 05:00,7.5,9.3,10.9, 26,2960,1017.74
2004-11-02 11:00,4.7,7.3,9.0, 24,2960,1023.08
2004-11-02 17:00,5.5,0.9,1.6,  5,2961,1020.92
2004-11-02 18:00,5.5,1.1,1.9,194,2961,1020.02
2004-11-02 19:00,5.5,3.6,4.6,161,2960,1019.18
2004-11-02 20:00,5.7,3.5,4.5,147,2960,1018.58
2004-11-02 21:00,6.0,4.4,6.0,164,2960,1017.98
2004-11-02 23:00,6.0,6.5,7.8,191,2948,1016.84
2004-11-03 00:00,6.5,6.1,7.0,194,2956,1016.60
2004-11-03 02:00,7.3,7.1,8.6,192,2960,1013.54
2004-11-03 03:00,7.6,8.4,10.1,193,2555,1012.16
2004-11-03 05:00,8.5,8.8,10.5,193,1988,1008.98
2004-11-03 08:00,9.6,5.6,6.4,211,2922,1005.26
2004-11-03 10:00,9.7,5.0,6.3,292,2960,1003.94
2004-11-03 11:00,9.3,6.4,7.9,302,2960,1002.32
2004-11-03 16:00,8.2,14.3,17.5,340,2961,1007.78
2004-11-03 17:00,7.8,13.0,16.2,340,2961,1008.50
2004-11-03 21:00,7.2,12.9,14.8,334,2961,1010.30
2004-11-04 02:00,4.7,9.5,12.0,343,2960,1015.40
2004-11-04 04:00,4.2,8.2,10.1,317,2960,1017.02
2004-11-04 05:00,3.8,7.2,8.8,333,2960,1017.80
2004-11-04 06:00,3.1,4.1,6.0,307,2960,1019.54
2004-11-04 09:00,3.0,5.8,7.1,308,2960,1019.24
2004-11-04 10:00,2.6,3.9,5.3,299,2960,1019.18
2004-11-04 11:00,3.5,8.3,10.0,345,2960,1018.22
2004-11-04 12:00,3.7,5.6,7.2,352,2961,1018.40
2004-11-04 13:00,3.6,5.5,7.2,334,2961,1018.76
2004-11-04 14:00,3.2,3.2,4.5,259,2961,1018.82
2004-11-04 15:00,4.1,1.6,2.5,253,2961,1017.98
2004-11-04 16:00,,,,,,
2004-11-04 17:00,5.7,0.4,1.4,152,2961,1015.70
2004-11-04 18:00,5.1,4.7,5.9,207,2961,1015.46
2004-11-04 19:00,5.5,4.6,5.6,205,2960,1014.32
2004-11-04 20:00,5.3,5.3,6.6,208,2880,1013.00
2004-11-04 21:00,5.2,4.3,5.6,201,2960,1012.22
2004-11-04 22:00,5.5,5.2,6.4,204,2960,1011.44
2004-11-05 00:00,6.5,7.6,9.1,206,2960,1009.10
2004-11-05 03:00,8.0,10.6,12.4,186,2960,1004.60
2004-11-05 04:00,7.8,10.4,12.2,168,1928,1000.88
2004-11-05 08:00,,,,,,
2004-11-05 09:00,7.2,10.3,14.0, 97,1093,987.25
2004-11-05 10:00,7.7,6.3,9.4, 37,1277,984.55
2004-11-05 11:00,,,,336, 445,
2004-11-05 12:00,7.3,8.0,9.6,295,2960,981.01
2004-11-05 13:00,6.7,9.0,12.0,286,2131,982.33
2004-11-05 14:00,7.1,7.6,9.2,264,2960,983.29
2004-11-05 15:00,8.2,8.3,10.8,261,2961,985.27
2004-11-05 18:00,8.3,12.4,15.5,270,2875,985.03
2004-11-05 19:00,8.1,10.5,13.2,274,2961,986.77
2004-11-05 22:00,7.7,13.9,17.0,276,2960,989.47
2004-11-05 23:00,7.1,12.6,15.3,272,2960,990.73
2004-11-06 00:00,6.8,12.9,16.7,272,2960,992.05
2004-11-06 01:00,6.5,11.6,15.8,273,2960,993.85
2004-11-06 02:00,6.3,12.0,14.7,276,2960,995.59
2004-11-06 03:00,6.1,10.0,13.2,279,2960,996.85
2004-11-06 04:00,5.8,9.9,12.4,280,2960,997.15
2004-11-06 06:00,,,, 74, 445,
2004-11-06 07:00,5.4,8.6,11.9,278,2960,999.26
2004-11-06 08:00,4.9,7.4,9.8,277,2960,1001.12
2004-11-06 09:00,4.4,5.6,7.2,260,2960,1001.96
2004-11-06 10:00,5.4,9.3,10.9,249,2960,1001.78
2004-11-06 11:00,6.1,7.7,10.5,248,2960,1002.20
2004-11-06 12:00,6.4,8.8,10.5,246,2960,1002.32
2004-11-06 15:00,,,, 65, 445,
2004-11-06 16:00,8.5,12.1,15.1,236,2960,1000.34
2004-11-06 17:00,8.9,12.2,14.4,235,2961,999.56
2004-11-06 19:00,9.8,11.4,14.5,226,2673,998.24
2004-11-06 22:00,10.3,12.0,14.4,232,2960,997.94
2004-11-06 23:00,10.7,10.5,12.2,236,2960,998.84
2004-11-07 00:00,,,, 41, 445,
2004-11-07 01:00,11.1,12.0,14.7,236,2960,999.44
2004-11-07 02:00,11.0,11.3,14.0,234,2960,1000.22
2004-11-07 03:00,11.2,11.7,14.2,246,2960,1001.24
2004-11-07 04:00,11.0,6.0,8.1,306,2960,1003.04
2004-11-07 05:00,9.9,8.0,10.6,304,2960,1004.66
2004-11-07 07:00,8.9,5.5,6.8,297,2960,1006.82
2004-11-07 08:00,8.3,4.8,6.0,308,2960,1007.00
2004-11-07 09:00,8.1,4.5,5.4,330,2960,1007.78
2004-11-07 10:00,,,,,,
2004-11-07 11:00,7.1,4.3,5.3, 61,2960,1009.82
2004-11-07 13:00,6.3,4.2,5.2, 83,2960,1011.20
2004-11-07 14:00,6.8,4.8,6.1,109,2960,1010.84
2004-11-07 16:00,8.9,7.7,9.1,146,2961,1009.40
2004-11-07 18:00,9.6,7.4,9.0,167,2961,1007.00
2004-11-07 19:00,,,,  6, 445,
2004-11-07 20:00,9.6,5.9,6.7,175,2960,1004.84
2004-11-07 21:00,9.7,6.2,7.3,170,2939,1004.24
2004-11-07 23:00,10.9,7.8,9.1,216,2960,1003.40
2004-11-08 01:00,11.7,9.3,11.9,222,2960,1002.50
2004-11-08 02:00,11.5,8.8,10.8,231,2812,1002.50
2004-11-08 03:00,11.3,8.2,9.6,229,2904,1002.38